EW2910 Weather Reports


Display with metric or nautical units.
time (UTC)temp
F
wind
direction
speed
MPH
gust
MPH
rain 1hr
in
rain 24hr
in
rain mn
in
humidity
%
barometer
mb
20260901031600 78 0 0.0 0.0 0.00 0.06 0.06 95 1017.6
20260901024611 78 0 0.0 1.0 0.00 0.06 0.06 95 1017.6
20260901023100 78 0 0.0 0.0 0.00 0.06 0.06 95 1017.5
20260901021604 77 0 0.0 0.0 0.00 0.06 0.06 95 1017.4
20260901014606 78 0 0.0 0.0 0.00 0.06 0.06 95 1017.1
20260901013123 78 0 0.0 1.0 0.00 0.06 0.06 95 1016.9
20260901011600 78 0 0.0 0.0 0.00 0.06 0.06 95 1016.6
20260901010110 78 0 0.0 0.0 0.00 0.06 0.06 95 1016.4
20260901004610 78 0 0.0 0.0 0.00 0.06 0.06 95 1016.5
20260901003100 78 0 0.0 0.0 0.00 0.06 0.06 94 1016.6
20260901001605 78 0 0.0 0.0 0.00 0.06 0.06 95 1016.6
20260901000107 79 0 0.0 0.0 0.00 0.06 0.06 95 1016.6
20260831234634 79 0 0.0 0.0 0.00 0.06 0.06 94 1016.3
20260831233106 79 0 0.0 1.0 0.00 0.06 0.06 94 1016.3
20260831231604 79 0 0.0 1.0 0.00 0.06 0.06 94 1016.1
20260831230059 79 0 0.0 0.0 0.00 0.06 0.06 95 1016.1
20260831224602 78 0 0.0 0.0 0.00 0.06 0.06 95 1016.2
20260831223104 78 0 0.0 3.0 0.00 0.06 0.06 95 1016.3
20260831221603 78 45 0.0 3.0 0.00 0.06 0.06 94 1016.6
20260831220101 78 0 0.0 1.0 0.00 0.06 0.06 94 1016.6
20260831214618 77 92 1.0 4.0 0.00 0.06 0.06 94 1016.7
20260831213107 78 0 0.0 1.0 0.02 0.06 0.06 95 1017.0
20260831211559 78 0 0.0 0.0 0.05 0.06 0.06 95 1016.9
20260831210100 78 0 0.0 3.0 0.06 0.06 0.06 94 1016.8
20260831204608 78 0 0.0 7.0 0.06 0.06 0.06 94 1016.5
20260831203103 78 0 1.0 7.0 0.04 0.04 0.04 93 1016.6
20260831201622 80 92 2.0 9.0 0.01 0.01 0.01 88 1016.9
20260831200106 81 66 5.0 12.0 0.00 0.00 0.00 85 1016.9
20260831194602 83 93 3.0 14.0 0.00 0.00 0.00 82 1017.2
20260831193134 85 117 5.0 16.0 0.00 0.00 0.00 78 1017.1
20260831191602 86 51 8.0 14.0 0.00 0.00 0.00 75 1016.8
20260831190101 88 57 5.0 16.0 0.00 0.00 0.00 75 1016.5
20260831184605 88 31 6.0 10.0 0.00 0.00 0.00 66 1016.4
20260831183107 89 49 4.0 9.0 0.00 0.00 0.00 68 1016.6
20260831181614 90 39 1.0 7.0 0.00 0.00 0.00 74 1016.5
20260831180108 86 335 6.0 11.0 0.00 0.00 0.00 77 1016.8
20260831174609 88 314 7.0 12.0 0.00 0.00 0.00 73 1016.8
20260831173104 88 47 3.0 9.0 0.00 0.00 0.00 72 1017.0
20260831171604 91 0 3.0 5.0 0.00 0.00 0.00 67 1017.1
20260831170119 89 0 0.0 4.0 0.00 0.00 0.00 70 1017.3
20260831164613 88 0 0.0 6.0 0.00 0.00 0.00 73 1017.7
20260831163103 89 332 0.0 8.0 0.00 0.00 0.00 72 1017.7
20260831161611 89 1 1.0 5.0 0.00 0.00 0.00 71 1018.0
20260831160110 87 0 0.0 3.0 0.00 0.00 0.00 76 1018.1
20260831154624 87 0 0.0 1.0 0.00 0.00 0.00 77 1018.1
20260831153102 88 0 0.0 1.0 0.00 0.00 0.00 77 1018.3
20260831151559 87 0 0.0 4.0 0.00 0.00 0.00 79 1018.2
20260831150105 88 0 0.0 4.0 0.00 0.00 0.00 77 1018.0
20260831144603 88 0 0.0 0.0 0.00 0.00 0.00 78 1018.0
20260831143102 85 0 0.0 5.0 0.00 0.00 0.00 81 1017.9
20260831141606 86 0 0.0 4.0 0.00 0.00 0.00 80 1018.0
20260831134607 84 0 0.0 0.0 0.00 0.00 0.00 85 1017.8
20260831133058 84 0 0.0 2.0 0.00 0.00 0.00 87 1017.7
20260831131607 82 0 0.0 3.0 0.00 0.00 0.00 90 1017.7
20260831130111 81 0 0.0 0.0 0.00 0.00 0.00 93 1017.7
20260831124614 79 0 1.0 4.0 0.00 0.00 0.00 95 1017.5
20260831123102 79 0 0.0 3.0 0.00 0.00 0.00 96 1017.5
20260831121602 78 0 1.0 4.0 0.00 0.00 0.00 97 1017.4
20260831120106 78 0 0.0 1.0 0.00 0.00 0.00 98 1017.4
20260831114606 77 0 0.0 4.0 0.00 0.00 0.00 98 1017.1
20260831113105 76 0 0.0 1.0 0.00 0.00 0.00 98 1017.0
20260831111606 75 0 0.0 0.0 0.00 0.00 0.00 98 1016.8
20260831110104 75 0 0.0 0.0 0.00 0.00 0.00 98 1016.6
20260831104603 75 0 0.0 0.0 0.00 0.00 0.00 98 1016.3
20260831103100 75 0 0.0 0.0 0.00 0.00 0.00 98 1016.2
20260831101603 75 0 0.0 0.0 0.00 0.00 0.00 98 1016.2
20260831100122 75 0 0.0 0.0 0.00 0.00 0.00 98 1016.2
20260831094600 75 0 0.0 1.0 0.00 0.00 0.00 98 1016.0
20260831093120 75 0 0.0 0.0 0.00 0.00 0.00 98 1015.9
20260831091604 75 0 0.0 0.0 0.00 0.00 0.00 98 1016.0
20260831090131 75 0 0.0 0.0 0.00 0.00 0.00 98 1015.9
20260831084601 75 0 0.0 0.0 0.00 0.00 0.00 97 1016.0
20260831083113 75 0 0.0 0.0 0.00 0.00 0.00 97 1016.2
20260831081610 75 0 0.0 0.0 0.00 0.00 0.00 97 1016.1
20260831080131 75 0 0.0 0.0 0.00 0.00 0.00 97 1016.0
20260831074602 75 0 0.0 0.0 0.00 0.00 0.00 97 1016.2
20260831073102 75 0 0.0 0.0 0.00 0.00 0.00 97 1016.3
20260831071605 75 0 0.0 0.0 0.00 0.00 0.00 97 1016.5
20260831070104 75 0 0.0 1.0 0.00 0.00 0.00 97 1016.4
20260831064609 76 0 0.0 0.0 0.00 0.00 0.00 97 1016.5
20260831063111 75 0 0.0 0.0 0.00 0.00 0.00 97 1016.7
20260831061603 76 0 0.0 0.0 0.00 0.00 0.00 96 1016.8
20260831060105 76 0 0.0 0.0 0.00 0.00 0.00 96 1016.8
20260831054618 76 0 0.0 0.0 0.00 0.00 0.00 96 1017.1
20260831053133 76 0 0.0 0.0 0.00 0.00 0.00 96 1017.2
20260831051619 76 0 0.0 0.0 0.00 0.00 0.00 96 1017.1
20260831050105 75 0 0.0 0.0 0.00 0.00 0.00 96 1017.1
20260831044644 76 0 0.0 0.0 0.00 0.00 0.00 96 1017.3
20260831043100 76 0 0.0 0.0 0.00 0.00 0.00 95 1017.2
20260831041617 76 0 0.0 0.0 0.00 0.00 0.00 95 1017.2
20260831040123 76 0 0.0 0.0 0.00 0.00 0.00 95 1017.4
20260831034623 76 0 0.0 0.0 0.00 0.00 0.00 94 1017.5
20260831033114 77 0 0.0 0.0 0.00 0.00 0.00 94 1017.4